sat.trackr.live / text

‹ back to catalog

STARLINK-3789

NORAD 52283 · 2022-041Y

PAYLOAD ACTIVE UNKNOWN

§ Identity

Operator
Country
US
Launch date
2022-04-21
Launch site
AFETR
Launch vehicle
Mass (kg)
RCS (m²)

Purposes: comms

External: N2YO · Heavens-Above · Gunter

§ Orbital elements

Epoch: 2026-09-20T03:42:15.725952Z

Period
93.90 min
Inclination
53.1608°
Eccentricity
0.0001210
Mean motion
15.33551753 rev/d
Perigee alt
464.4 km
Apogee alt
466.1 km
Semi-major
6,843.4 km
B*
3.4617e-5
RAAN
309.2713°
Arg perigee
77.2859°
Mean anomaly
282.8278°
Rev number
24,381

§ Raw data

STARLINK-37891 52283U 22041Y   26263.15434868  .00000766  00000+0  34617-4 0  99902 52283  53.1608 309.2713 0001210  77.2859 282.8278 15.33551753243815

JSON: /api/v1/satellites/52283 · /tle

For live sub-satellite position, see the globe view (requires WebGL).

§ Visibility from observer

Set your observer location to see the next 7 days of passes ≥ 10°. The values pass through the URL so the page stays shareable.

No JS? Fill the form by hand. The geolocation button needs JavaScript.